Location: Helsinki
(60.1699°N, 24.9384°E)
Time: 19:37:01
(UTC+02:00)

Transit 2A Rocket - Pass Details

Date: 21 September 2023
Orbit: 593 x 903 km, 66.7° (Epoch: 28 November)

Event Time Altitude Azimuth Distance (km) Brightness Sun altitude
Rises 00:15:35 0° 308° (NW) 3,070 8.9 -27.9°
Reaches altitude 10° 00:18:00 10° 307° (NW) 2,105 7.9 -28.0°
Enters shadow 00:21:21 45° 300° (WNW) 880 5.5 -28.1°
Maximum altitude 00:22:44 80° 221° (SW) 651 - -28.1°
Drops below altitude 10° 00:27:07 10° 136° (SE) 1,962 - -28.2°
Sets 00:29:18 0° 135° (SE) 2,844 - -28.3°
